QPF
0.00 0.00 0.00 0.00 0.00 0.00 0.00 0.00 0.00 0.00 0.00 0.00 0.00 0.00 0.00 0.00 0.00 0.00 0.00 0.00 0.00 0.00 0.00 0.00 0.00 0.00 0.00 0.00 0.00 0.00 0.00 0.00 0.00 0.00 0.01 0.03 0.03 0.08 0.05 0.00 0.00 0.00 0.00 0.01
0.00 0.00 0.00 0.00 0.00 0.00 0.00 0.00 0.00 0.00 0.00 0.00 0.00 0.00 0.00 0.00 0.00 0.00 0.00 0.00 0.00 0.00 0.00 0.00 0.00 0.00 0.00 0.00 0.00 0.00 0.00 0.00 0.00 0.00 0.00 0.10 0.07 0.09 0.02 0.02 0.00 0.00 0.00 0.00
0.00 0.00 0.00 0.00 0.00 0.00 0.00 0.00 0.00 0.00 0.00 0.00 0.00 0.00 0.00 0.00 0.00 0.00 0.00 0.00 0.00 0.00 0.00 0.00 0.00 0.00 0.00 0.00 0.00 0.00 0.00 0.00 0.00 0.00 0.00 0.10 0.17 0.23 0.23 0.07 0.00 0.00 0.00 0.00
0.00 0.00 0.00 0.00 0.00 0.00 0.00 0.00 0.00 0.00 0.00 0.00 0.00 0.00 0.00 0.00 0.00 0.00 0.00 0.00 0.00 0.00 0.00 0.00 0.00 0.00 0.00 0.00 0.00 0.00 0.00 0.00 0.00 0.00 0.00 0.04 0.03 0.02 0.02 0.01 0.00 0.00 0.00 0.00
0.00 0.00 0.00 0.00 0.00 0.00 0.00 0.00 0.00 0.00 0.00 0.00 0.00 0.00 0.00 0.00 0.00 0.00 0.00 0.00 0.00 0.00 0.00 0.00 0.00 0.00 0.00 0.00 0.00 0.00 0.00 0.00 0.00 0.00 0.00 0.06 0.10 0.08 0.07 0.12 0.03 0.00 0.00 0.00
0.00 0.00 0.00 0.00 0.00 0.00 0.00 0.00 0.00 0.00 0.00 0.00 0.00 0.00 0.00 0.00 0.00 0.00 0.00 0.00 0.00 0.00 0.00 0.00 0.00 0.00 0.00 0.00 0.00 0.00 0.00 0.00 0.01 0.00 0.00 0.02 0.03 0.11 0.32 0.19 0.17 0.04 0.00 0.00
0.00 0.00 0.00 0.00 0.00 0.00 0.00 0.00 0.00 0.00 0.00 0.00 0.00 0.00 0.00 0.00 0.00 0.00 0.00 0.00 0.00 0.00 0.00 0.00 0.00 0.00 0.00 0.00 0.00 0.00 0.00 0.01 0.02 0.02 0.02 0.01 0.01 0.01 0.10 0.14 0.11 0.04 0.00 0.01
0.00 0.00 0.00 0.00 0.00 0.00 0.00 0.00 0.00 0.01 0.00 0.00 0.00 0.00 0.00 0.00 0.00 0.00 0.00 0.00 0.00 0.00 0.00 0.00 0.00 0.00 0.00 0.00 0.00 0.00 0.00 0.00 0.00 0.01 0.02 0.04 0.03 0.04 0.11 0.32 0.41 0.26 0.08 0.03
0.00 0.00 0.00 0.00 0.00 0.00 0.00 0.00 0.00 0.00 0.00 0.01 0.00 0.00 0.00 0.00 0.00 0.00 0.00 0.00 0.00 0.00 0.00 0.00 0.00 0.00 0.00 0.00 0.00 0.00 0.00 0.01 0.01 0.02 0.02 0.02 0.03 0.07 0.04 0.18 0.42 1.18 1.06 0.49
0.00 0.00 0.00 0.00 0.00 0.00 0.00 0.00 0.00 0.00 0.02 0.03 0.00 0.00 0.01 0.01 0.00 0.00 0.00 0.00 0.00 0.00 0.00 0.00 0.00 0.00 0.00 0.00 0.00 0.00 0.00 0.01 0.04 0.07 0.06 0.07 0.07 0.07 0.09 0.07 0.03 0.50 1.20 0.59
0.00 0.00 0.00 0.00 0.00 0.00 0.00 0.00 0.00 0.00 0.03 0.04 0.04 0.00 0.00 0.00 0.00 0.00 0.00 0.00 0.00 0.00 0.00 0.00 0.00 0.00 0.00 0.00 0.00 0.00 0.01 0.03 0.02 0.06 0.13 0.11 0.12 0.12 0.14 0.14 0.08 0.07 0.23 0.39
0.00 0.00 0.00 0.00 0.00 0.00 0.00 0.00 0.00 0.03 0.07 0.04 0.02 0.01 0.00 0.00 0.00 0.00 0.00 0.00 0.00 0.00 0.00 0.00 0.00 0.00 0.00 0.00 0.00 0.00 0.00 0.02 0.04 0.03 0.16 0.14 0.15 0.10 0.09 0.04 0.02 0.07 0.21 0.19
0.00 0.00 0.00 0.01 0.02 0.01 0.00 0.00 0.00 0.02 0.08 0.05 0.03 0.01 0.00 0.00 0.00 0.00 0.00 0.00 0.00 0.00 0.00 0.00 0.00 0.00 0.00 0.00 0.00 0.00 0.00 0.00 0.01 0.05 0.12 0.11 0.05 0.01 0.02 0.01 0.00 0.01 0.08 0.12
0.00 0.00 0.00 0.01 0.05 0.03 0.00 0.00 0.00 0.00 0.00 0.00 0.00 0.00 0.00 0.00 0.00 0.00 0.00 0.00 0.00 0.00 0.00 0.00 0.00 0.00 0.00 0.00 0.00 0.00 0.00 0.00 0.00 0.03 0.11 0.07 0.01 0.00 0.00 0.00 0.01 0.05 0.14 0.13
0.01 0.02 0.00 0.00 0.00 0.01 0.01 0.00 0.00 0.00 0.00 0.00 0.00 0.00 0.00 0.00 0.00 0.00 0.00 0.00 0.00 0.00 0.00 0.00 0.00 0.00 0.00 0.00 0.00 0.00 0.00 0.00 0.00 0.01 0.06 0.08 0.03 0.01 0.00 0.01 0.08 0.13 0.12 0.09
0.01 0.02 0.00 0.00 0.00 0.00 0.00 0.00 0.00 0.00 0.00 0.00 0.00 0.00 0.00 0.00 0.00 0.00 0.00 0.00 0.00 0.00 0.00 0.00 0.00 0.00 0.00 0.00 0.00 0.00 0.00 0.00 0.00 0.01 0.02 0.02 0.01 0.01 0.00 0.00 0.06 0.14 0.12 0.02
0.03 0.01 0.02 0.00 0.00 0.00 0.00 0.00 0.00 0.00 0.00 0.00 0.00 0.00 0.00 0.00 0.00 0.00 0.00 0.00 0.00 0.00 0.00 0.00 0.00 0.01 0.01 0.01 0.01 0.01 0.00 0.00 0.00 0.01 0.01 0.01 0.04 0.06 0.02 0.01 0.01 0.02 0.03 0.00
0.00 0.03 0.02 0.00 0.00 0.00 0.00 0.00 0.00 0.00 0.00 0.00 0.00 0.00 0.00 0.00 0.00 0.00 0.00 0.00 0.00 0.00 0.00 0.01 0.04 0.05 0.02 0.03 0.03 0.00 0.00 0.00 0.00 0.00 0.01 0.01 0.03 0.14 0.06 0.01 0.00 0.01 0.00 0.00
0.00 0.01 0.02 0.00 0.00 0.00 0.00 0.00 0.00 0.00 0.00 0.00 0.00 0.00 0.00 0.00 0.00 0.00 0.00 0.00 0.00 0.00 0.00 0.00 0.03 0.04 0.00 0.00 0.00 0.00 0.00 0.00 0.00 0.01 0.04 0.05 0.00 0.05 0.02 0.00 0.00 0.00 0.00 0.00
0.00 0.00 0.00 0.00 0.00 0.00 0.00 0.00 0.00 0.00 0.00 0.00 0.00 0.00 0.00 0.00 0.00 0.00 0.00 0.00 0.00 0.00 0.00 0.00 0.00 0.00 0.00 0.00 0.00 0.00 0.00 0.00 0.01 0.03 0.15 0.07 0.01 0.00 0.00 0.00 0.00 0.00 0.00 0.00
0.01 0.00 0.00 0.00 0.00 0.00 0.00 0.00 0.00 0.00 0.00 0.00 0.00 0.00 0.00 0.00 0.00 0.00 0.00 0.00 0.00 0.00 0.00 0.00 0.00 0.00 0.00 0.00 0.00 0.00 0.00 0.00 0.02 0.06 0.21 0.14 0.01 0.00 0.00 0.00 0.00 0.00 0.00 0.01
0.01 0.01 0.00 0.00 0.00 0.00 0.00 0.00 0.00 0.00 0.00 0.00 0.00 0.00 0.00 0.00 0.00 0.00 0.00 0.00 0.00 0.00 0.00 0.00 0.00 0.00 0.00 0.00 0.00 0.00 0.00 0.00 0.03 0.06 0.15 0.20 0.02 0.00 0.00 0.00 0.00 0.00 0.00 0.01
0.00 0.00 0.00 0.00 0.00 0.00 0.00 0.00 0.00 0.00 0.00 0.00 0.00 0.00 0.00 0.00 0.00 0.00 0.00 0.00 0.00 0.00 0.00 0.00 0.00 0.00 0.00 0.00 0.00 0.00 0.00 0.00 0.02 0.05 0.20 0.19 0.03 0.00 0.00 0.00 0.01 0.01 0.00 0.00
0.00 0.00 0.00 0.00 0.00 0.00 0.00 0.00 0.00 0.00 0.00 0.00 0.00 0.00 0.00 0.00 0.00 0.00 0.00 0.00 0.00 0.00 0.00 0.00 0.00 0.00 0.01 0.01 0.01 0.00 0.00 0.00 0.01 0.06 0.17 0.14 0.01 0.01 0.01 0.01 0.04 0.05 0.04 0.02
0.00 0.00 0.00 0.00 0.00 0.00 0.00 0.00 0.00 0.00 0.00 0.00 0.00 0.00 0.00 0.00 0.00 0.00 0.00 0.00 0.00 0.00 0.00 0.00 0.00 0.03 0.07 0.06 0.01 0.00 0.00 0.00 0.03 0.08 0.14 0.04 0.00 0.02 0.02 0.07 0.11 0.16 0.12 0.05
0.00 0.00 0.00 0.00 0.00 0.00 0.00 0.00 0.00 0.00 0.00 0.00 0.00 0.00 0.00 0.00 0.00 0.00 0.00 0.00 0.00 0.00 0.00 0.01 0.02 0.07 0.14 0.11 0.05 0.00 0.00 0.00 0.04 0.07 0.16 0.02 0.03 0.05 0.04 0.08 0.16 0.24 0.12 0.07
MSLP
1009.22 1009.11 1008.01 1007.32 1007.25 1007.06 1007.06 1006.73 1005.87 1005.37 1005.43 1005.47 1005.37 1004.93 1004.75 1004.64 1004.79 1004.99 1005.09 1006.13 1006.91 1007.26 1007.63 1008.07 1008.06 1007.80 1007.72 1007.25 1006.82 1006.35 1006.09 1005.60 1004.62 1004.19 1004.37 1005.19 1005.65 1006.21 1006.65 1006.58 1006.99 1007.63 1008.28 1008.68
1009.25 1008.51 1008.05 1008.07 1008.12 1008.21 1007.76 1007.04 1006.21 1005.58 1005.51 1005.91 1005.56 1004.86 1004.76 1004.49 1004.45 1005.33 1006.60 1007.43 1008.01 1008.06 1008.11 1008.17 1008.49 1008.33 1008.15 1007.98 1007.76 1007.06 1006.30 1005.70 1005.02 1004.27 1003.99 1004.11 1004.80 1005.25 1005.93 1006.20 1006.61 1007.18 1007.79 1008.32
1008.85 1008.06 1008.63 1008.87 1008.53 1008.27 1007.83 1007.37 1006.66 1006.33 1006.09 1005.79 1005.31 1004.01 1003.92 1004.43 1005.82 1006.87 1007.73 1008.54 1008.83 1008.89 1008.98 1008.88 1008.83 1008.76 1008.51 1008.21 1008.12 1007.54 1006.83 1005.89 1005.14 1004.57 1003.82 1004.00 1004.58 1004.53 1004.78 1005.54 1006.37 1006.78 1007.50 1008.05
1008.83 1008.43 1008.68 1008.83 1008.62 1008.52 1007.43 1007.45 1006.98 1006.75 1006.54 1005.42 1005.35 1003.23 1003.96 1004.69 1005.66 1006.92 1008.00 1008.77 1009.15 1009.38 1009.39 1009.09 1009.09 1009.18 1008.88 1008.69 1008.22 1007.84 1007.42 1006.71 1004.88 1004.38 1003.79 1003.72 1004.10 1004.20 1004.46 1005.05 1005.67 1006.27 1007.05 1007.88
1008.11 1008.29 1008.68 1008.74 1008.40 1008.42 1007.69 1007.99 1008.21 1007.68 1006.93 1006.25 1005.04 1004.28 1003.46 1003.99 1004.65 1006.53 1008.37 1009.42 1009.72 1009.86 1009.75 1009.52 1009.42 1009.27 1009.21 1009.10 1008.66 1007.96 1007.41 1006.51 1005.92 1004.14 1003.62 1003.75 1004.59 1004.23 1004.35 1004.94 1005.61 1005.88 1006.61 1007.61
1008.57 1008.72 1009.41 1008.77 1008.79 1008.85 1008.84 1008.87 1008.56 1008.04 1007.25 1005.92 1005.20 1004.87 1003.69 1003.95 1004.71 1006.81 1008.65 1009.69 1010.40 1010.49 1010.43 1010.23 1009.90 1009.47 1009.26 1009.29 1009.16 1008.55 1007.61 1006.82 1006.19 1005.27 1003.69 1003.57 1004.09 1004.46 1004.63 1004.83 1005.30 1005.48 1006.35 1007.32
1008.19 1008.12 1008.68 1009.75 1009.53 1009.22 1009.52 1009.69 1008.64 1007.75 1006.78 1004.98 1005.03 1004.56 1004.18 1006.15 1007.49 1008.61 1009.62 1010.45 1010.80 1010.95 1010.83 1010.86 1010.38 1009.88 1009.45 1009.16 1009.38 1009.11 1008.08 1007.24 1006.57 1005.93 1005.23 1004.15 1003.83 1004.03 1004.27 1004.78 1005.17 1005.83 1006.56 1007.44
1009.51 1008.01 1009.01 1010.14 1010.52 1010.33 1009.90 1009.81 1009.31 1008.27 1007.37 1006.25 1005.90 1006.24 1006.11 1008.19 1009.13 1009.94 1010.64 1011.02 1011.01 1011.33 1011.29 1011.35 1010.83 1010.34 1009.90 1009.46 1009.32 1009.35 1008.59 1007.60 1007.02 1006.71 1006.03 1005.14 1004.38 1004.31 1004.47 1004.65 1005.10 1006.05 1006.99 1007.28
1011.27 1009.77 1010.61 1011.25 1011.69 1011.83 1010.61 1010.03 1010.19 1010.03 1009.34 1008.27 1007.67 1007.16 1008.53 1009.23 1010.02 1010.44 1010.71 1011.11 1011.38 1011.61 1011.48 1011.33 1010.95 1010.56 1010.10 1009.64 1009.23 1009.08 1008.81 1008.10 1007.36 1006.96 1006.41 1005.61 1005.11 1004.98 1005.07 1005.58 1005.67 1007.12 1006.97 1008.44
1013.15 1011.64 1012.13 1012.31 1012.77 1012.27 1012.46 1011.69 1011.39 1011.15 1010.80 1009.52 1008.34 1007.59 1008.60 1010.06 1010.43 1010.95 1011.07 1011.51 1011.63 1011.76 1011.74 1011.30 1011.02 1010.62 1010.15 1009.68 1009.24 1008.88 1008.58 1008.33 1006.92 1006.32 1006.54 1005.94 1005.60 1005.44 1005.78 1006.09 1005.93 1006.19 1006.47 1007.23
1014.76 1014.16 1012.62 1012.89 1012.71 1012.13 1012.59 1012.60 1012.70 1012.85 1012.60 1011.76 1010.33 1009.55 1010.94 1011.31 1011.42 1011.68 1011.76 1011.84 1011.90 1011.90 1011.90 1011.48 1011.07 1010.54 1010.21 1009.50 1008.81 1008.58 1008.36 1008.33 1006.65 1006.72 1006.17 1005.45 1005.96 1006.08 1006.17 1006.24 1006.17 1006.82 1007.38 1008.34
1015.74 1015.46 1014.09 1013.28 1012.97 1013.69 1013.99 1013.91 1014.47 1014.67 1014.36 1013.77 1013.06 1011.27 1011.55 1011.77 1011.93 1012.11 1012.01 1011.92 1011.92 1012.07 1011.81 1011.37 1010.92 1010.65 1010.04 1009.29 1008.48 1008.09 1007.92 1008.09 1007.45 1007.19 1006.94 1006.49 1006.48 1006.56 1006.68 1006.72 1006.95 1007.43 1007.60 1007.91
1016.58 1016.00 1015.16 1013.24 1013.16 1014.62 1014.92 1014.95 1015.48 1016.50 1016.51 1015.10 1014.04 1011.90 1011.80 1011.96 1012.43 1012.31 1012.12 1012.08 1012.07 1011.88 1011.80 1011.55 1011.06 1010.47 1009.86 1009.14 1008.47 1008.12 1007.98 1008.15 1007.72 1007.50 1007.24 1006.92 1006.94 1006.94 1007.15 1007.41 1007.60 1007.61 1008.01 1008.29
1018.62 1017.47 1016.54 1015.25 1014.99 1016.67 1016.18 1016.19 1016.35 1016.41 1015.81 1014.64 1013.70 1012.68 1012.10 1012.50 1012.69 1012.47 1012.23 1012.24 1012.32 1012.21 1012.47 1012.05 1011.23 1010.51 1009.53 1009.00 1008.60 1008.18 1008.05 1008.32 1007.97 1007.51 1007.21 1006.68 1007.11 1007.06 1007.41 1007.71 1008.11 1008.41 1008.68 1009.00
1019.62 1018.35 1017.28 1016.21 1015.92 1016.00 1016.35 1016.10 1015.84 1016.09 1015.36 1014.85 1013.78 1013.24 1013.14 1012.95 1012.94 1012.55 1012.34 1012.26 1012.47 1012.74 1012.63 1011.97 1010.71 1009.87 1009.37 1009.10 1008.77 1008.25 1008.10 1008.21 1007.93 1007.94 1007.46 1007.38 1007.52 1007.51 1007.94 1008.36 1008.65 1008.93 1009.24 1009.61
1019.78 1018.41 1017.37 1016.24 1015.81 1015.58 1015.32 1015.16 1014.84 1014.68 1014.59 1014.58 1014.05 1013.37 1013.05 1012.89 1012.83 1012.57 1012.47 1012.55 1012.44 1012.41 1012.39 1011.68 1010.50 1009.76 1009.53 1009.36 1008.91 1008.50 1008.34 1008.27 1007.92 1008.06 1007.45 1007.67 1007.82 1008.03 1008.40 1008.88 1009.24 1009.41 1009.59 1010.11
1019.52 1018.94 1018.12 1016.50 1015.98 1015.60 1014.76 1013.62 1013.64 1013.65 1013.54 1013.52 1013.25 1013.02 1012.85 1013.00 1012.93 1012.51 1012.43 1012.57 1012.20 1012.11 1012.23 1011.60 1010.54 1010.32 1010.14 1009.92 1009.58 1009.20 1009.03 1008.42 1008.01 1008.07 1007.84 1007.92 1008.16 1008.28 1008.42 1008.96 1009.28 1009.70 1009.55 1010.40
1018.88 1018.98 1018.67 1017.20 1016.28 1014.98 1013.57 1013.54 1013.38 1013.23 1012.76 1012.83 1013.03 1012.98 1013.09 1013.13 1012.75 1012.44 1012.20 1012.27 1011.80 1011.50 1011.68 1011.32 1011.00 1010.90 1010.35 1010.06 1009.76 1009.54 1009.31 1008.83 1007.93 1008.16 1007.85 1007.92 1008.31 1008.41 1008.66 1009.01 1009.56 1009.87 1010.10 1010.44
1018.66 1019.13 1018.70 1017.76 1015.78 1014.17 1012.94 1013.28 1013.31 1013.12 1012.62 1012.40 1012.71 1012.87 1013.21 1012.87 1012.62 1011.74 1011.90 1011.88 1011.66 1011.33 1011.28 1011.12 1011.09 1010.85 1010.25 1009.80 1009.82 1009.81 1009.35 1008.87 1007.93 1007.95 1007.69 1007.93 1008.15 1008.36 1008.96 1009.43 1009.86 1010.25 1010.82 1011.27
1018.36 1018.71 1018.86 1017.46 1016.28 1013.98 1012.68 1013.11 1013.38 1013.39 1012.35 1011.55 1012.78 1013.12 1012.92 1012.88 1012.22 1011.50 1011.70 1011.71 1011.41 1011.24 1011.27 1011.17 1010.84 1010.64 1010.42 1010.64 1010.67 1010.24 1009.24 1008.62 1007.78 1007.68 1007.53 1007.77 1008.11 1008.68 1009.37 1009.80 1010.26 1010.96 1011.58 1012.06
1018.43 1018.50 1017.83 1017.21 1015.76 1013.81 1012.82 1013.30 1013.59 1013.07 1012.58 1012.56 1012.90 1012.89 1012.90 1012.81 1012.69 1012.49 1012.08 1011.74 1011.37 1011.24 1011.14 1011.13 1011.02 1010.90 1011.04 1011.01 1010.85 1010.23 1009.46 1008.65 1007.93 1007.72 1007.47 1007.76 1008.13 1008.79 1009.60 1010.08 1010.86 1011.64 1012.42 1012.99
1016.98 1017.37 1016.84 1016.41 1015.10 1013.80 1012.72 1013.57 1013.22 1012.37 1012.55 1012.72 1012.85 1012.89 1012.96 1012.87 1012.65 1012.27 1011.94 1011.63 1011.26 1011.01 1010.97 1010.93 1011.31 1011.19 1010.93 1010.83 1010.62 1010.10 1009.42 1008.56 1008.13 1007.70 1007.56 1008.04 1008.41 1009.14 1009.97 1010.47 1011.55 1012.29 1012.86 1013.59
1015.49 1015.34 1014.74 1014.60 1013.71 1012.98 1012.72 1012.13 1012.43 1012.55 1012.62 1012.59 1012.95 1013.01 1013.09 1012.82 1012.47 1012.24 1011.88 1011.46 1011.10 1010.90 1010.85 1011.09 1011.73 1011.21 1010.41 1010.40 1010.18 1009.59 1008.97 1008.47 1007.93 1007.62 1007.42 1007.73 1008.63 1009.49 1010.32 1010.94 1011.86 1012.70 1013.32 1014.10
1014.42 1014.23 1014.16 1013.91 1012.54 1012.49 1012.45 1012.27 1012.44 1012.78 1012.86 1012.82 1013.11 1013.32 1013.13 1012.80 1012.56 1012.18 1011.73 1011.39 1011.09 1011.16 1011.24 1011.70 1011.71 1011.04 1010.27 1009.44 1008.99 1008.58 1008.09 1007.85 1007.20 1007.45 1007.37 1007.89 1008.96 1009.86 1010.72 1011.44 1012.13 1012.82 1013.49 1014.17
1013.42 1013.89 1013.40 1012.68 1012.18 1012.30 1012.08 1011.88 1012.20 1012.57 1012.81 1013.01 1013.30 1013.16 1013.02 1012.88 1012.59 1012.28 1011.91 1011.52 1011.60 1011.54 1011.69 1011.84 1011.62 1011.12 1010.20 1008.73 1007.43 1006.64 1006.13 1006.14 1006.61 1006.96 1007.60 1008.40 1009.35 1010.17 1011.13 1011.84 1012.43 1013.14 1013.81 1014.09
1012.96 1012.67 1012.38 1011.78 1011.22 1011.02 1011.26 1011.60 1012.40 1012.70 1012.81 1013.16 1013.14 1013.06 1012.99 1012.94 1012.83 1012.45 1012.07 1012.00 1011.96 1011.82 1011.90 1011.82 1011.44 1010.66 1009.44 1008.20 1006.46 1004.21 1003.92 1005.17 1005.93 1006.77 1007.63 1008.66 1009.70 1010.64 1011.41 1012.15 1013.14 1013.84 1014.37 1014.83
Thickness
5708 5694 5697 5710 5710 5707 5697 5689 5689 5705 5708 5695 5689 5693 5698 5702 5698 5691 5689 5677 5669 5665 5667 5666 5665 5669 5672 5678 5682 5686 5688 5693 5702 5707 5706 5698 5696 5694 5690 5695 5693 5690 5687 5686
5690 5685 5701 5701 5693 5680 5678 5673 5678 5692 5693 5676 5674 5677 5685 5688 5686 5675 5659 5651 5643 5643 5646 5648 5648 5651 5654 5656 5660 5667 5675 5682 5689 5697 5701 5701 5695 5693 5689 5688 5686 5684 5683 5681
5677 5691 5685 5675 5672 5666 5668 5661 5664 5660 5669 5669 5664 5670 5676 5666 5655 5643 5638 5630 5624 5622 5623 5627 5631 5634 5638 5642 5644 5650 5658 5668 5677 5684 5693 5693 5688 5687 5685 5679 5678 5681 5677 5673
5673 5683 5669 5661 5658 5657 5650 5662 5655 5648 5638 5633 5661 5636 5659 5650 5634 5624 5621 5612 5608 5608 5611 5616 5616 5617 5622 5626 5633 5638 5642 5649 5668 5673 5680 5680 5678 5677 5682 5677 5674 5673 5670 5666
5671 5661 5652 5646 5650 5648 5641 5642 5629 5627 5621 5618 5639 5622 5640 5661 5638 5603 5601 5596 5593 5593 5596 5599 5601 5604 5608 5611 5617 5626 5632 5640 5647 5663 5669 5669 5663 5672 5676 5671 5665 5666 5665 5661
5656 5657 5636 5640 5638 5629 5626 5613 5610 5609 5606 5593 5621 5617 5626 5634 5633 5592 5584 5581 5576 5576 5577 5581 5586 5592 5595 5598 5601 5609 5618 5624 5633 5643 5659 5663 5660 5660 5661 5663 5660 5660 5659 5657
5646 5641 5626 5611 5607 5613 5599 5584 5570 5573 5587 5592 5621 5609 5624 5592 5587 5580 5567 5562 5560 5561 5563 5565 5571 5577 5583 5586 5588 5592 5602 5611 5619 5627 5634 5650 5657 5658 5657 5657 5658 5655 5650 5647
5600 5613 5614 5590 5583 5581 5584 5576 5559 5544 5563 5580 5608 5571 5593 5568 5563 5558 5551 5548 5549 5547 5549 5549 5556 5562 5569 5574 5577 5580 5588 5599 5607 5613 5621 5633 5644 5646 5647 5650 5652 5648 5642 5641
5572 5589 5581 5567 5558 5554 5568 5558 5560 5541 5553 5548 5565 5583 5553 5549 5542 5540 5539 5536 5533 5533 5535 5538 5544 5550 5557 5563 5568 5572 5577 5586 5598 5604 5612 5621 5625 5630 5634 5633 5635 5625 5635 5625
5548 5541 5555 5546 5536 5542 5531 5545 5530 5535 5506 5522 5551 5568 5543 5523 5526 5524 5525 5522 5521 5520 5521 5527 5532 5539 5547 5554 5560 5566 5571 5575 5594 5602 5603 5610 5616 5621 5621 5623 5629 5632 5634 5600
5521 5515 5535 5524 5524 5524 5520 5516 5517 5514 5516 5504 5519 5542 5515 5509 5509 5507 5509 5508 5506 5507 5508 5515 5522 5530 5536 5546 5556 5559 5564 5568 5586 5588 5598 5605 5607 5609 5614 5618 5622 5619 5615 5610
5506 5485 5495 5509 5515 5500 5496 5496 5493 5475 5485 5485 5484 5509 5503 5498 5496 5496 5496 5495 5496 5495 5499 5506 5512 5517 5527 5538 5549 5557 5561 5563 5571 5578 5585 5592 5596 5599 5604 5607 5609 5608 5609 5611
5486 5483 5472 5501 5505 5482 5476 5481 5475 5446 5440 5455 5462 5496 5494 5485 5481 5482 5483 5484 5484 5486 5488 5490 5497 5506 5516 5528 5539 5548 5554 5555 5561 5568 5576 5584 5586 5593 5596 5597 5599 5603 5602 5603
5450 5462 5464 5470 5480 5428 5440 5451 5452 5452 5451 5463 5468 5479 5480 5469 5466 5469 5472 5473 5472 5473 5469 5472 5482 5492 5505 5514 5525 5535 5545 5548 5555 5559 5570 5576 5581 5588 5590 5591 5591 5591 5592 5591
5425 5428 5450 5458 5456 5450 5428 5438 5447 5427 5447 5442 5461 5455 5456 5455 5454 5458 5461 5463 5460 5454 5453 5461 5476 5487 5495 5500 5510 5523 5534 5541 5549 5552 5561 5563 5572 5579 5580 5581 5584 5584 5582 5582
5412 5424 5438 5444 5450 5447 5441 5444 5449 5449 5444 5435 5441 5444 5450 5451 5449 5451 5451 5449 5449 5446 5442 5449 5462 5472 5478 5485 5495 5507 5519 5531 5543 5545 5556 5557 5565 5569 5572 5572 5574 5574 5576 5576
5406 5411 5409 5428 5438 5434 5431 5451 5450 5449 5449 5445 5437 5445 5445 5439 5438 5441 5440 5436 5438 5436 5431 5437 5445 5445 5449 5458 5471 5486 5500 5520 5534 5540 5548 5552 5558 5564 5567 5567 5568 5568 5574 5572
5409 5404 5398 5418 5428 5414 5449 5445 5444 5443 5450 5446 5440 5439 5434 5430 5432 5433 5433 5431 5435 5436 5431 5433 5431 5427 5432 5439 5453 5469 5486 5504 5525 5533 5543 5550 5553 5558 5561 5564 5563 5564 5567 5570
5409 5395 5392 5399 5428 5447 5454 5442 5437 5433 5440 5445 5437 5433 5425 5426 5426 5433 5431 5430 5430 5431 5430 5431 5426 5425 5428 5433 5440 5450 5474 5495 5517 5530 5541 5546 5552 5556 5557 5558 5558 5558 5558 5561
5404 5401 5387 5406 5398 5423 5451 5442 5436 5431 5427 5448 5429 5420 5420 5418 5419 5431 5429 5427 5427 5427 5426 5424 5425 5424 5424 5421 5425 5436 5463 5487 5512 5526 5537 5543 5549 5552 5551 5551 5550 5548 5550 5553
5374 5375 5385 5393 5403 5432 5446 5435 5427 5421 5431 5432 5424 5419 5415 5413 5417 5418 5421 5422 5423 5422 5422 5420 5418 5418 5415 5415 5420 5431 5452 5478 5504 5519 5532 5540 5546 5548 5546 5545 5543 5541 5541 5544
5384 5373 5383 5391 5402 5408 5441 5424 5421 5438 5432 5425 5420 5417 5413 5414 5415 5417 5419 5419 5420 5421 5420 5418 5412 5412 5415 5414 5419 5429 5446 5473 5495 5514 5529 5535 5539 5540 5539 5538 5534 5534 5538 5538
5399 5404 5410 5411 5421 5434 5435 5441 5435 5432 5428 5425 5416 5413 5409 5410 5413 5414 5415 5418 5419 5419 5418 5414 5403 5405 5416 5418 5424 5436 5451 5473 5498 5514 5528 5532 5533 5535 5532 5532 5530 5531 5535 5534
5409 5416 5409 5410 5434 5430 5431 5435 5432 5427 5422 5421 5413 5405 5403 5404 5408 5411 5415 5417 5417 5413 5411 5403 5400 5405 5413 5422 5433 5447 5463 5481 5504 5513 5524 5529 5529 5528 5527 5527 5528 5531 5533 5533
5415 5404 5408 5420 5429 5426 5430 5436 5433 5426 5422 5416 5408 5404 5398 5398 5403 5406 5410 5413 5409 5407 5403 5399 5399 5403 5409 5428 5448 5468 5486 5499 5510 5519 5522 5524 5524 5523 5521 5522 5526 5529 5529 5534
5410 5410 5412 5421 5435 5439 5439 5436 5427 5421 5418 5411 5407 5401 5397 5396 5397 5402 5406 5406 5404 5402 5400 5399 5400 5408 5420 5437 5462 5495 5513 5514 5520 5521 5522 5521 5520 5519 5518 5520 5521 5522 5525 5527